WUK8380 EGGW-LEBL

Flight info

Callsign WUK8380
Flight time N/A
Altitude 33000
Route RODNI N27 ICTAM Q63 CPT N859 GWC UN859 SOPIL DCT BALAN DCT EVPOK DCT NARAK DCT GAI DCT LOMRA DCT ROCAN DCT PUMAL
Aircraft A21N/M-SDE2E3FGHIRWXY/LB1

Departure

Time 2026-04-29 12:05
Airport London Luton Airport (EGGW)

Arrival

Time N/A
Airport Josep Tarradellas Barcelona-El Prat Airport (LEBL)
Time Latitude Longitude Altitude Speed Heading
2026-04-29 11:55 51.88004 -0.37399 514 ft 0 kts 72°
2026-04-29 11:58 51.88011 -0.37363 514 ft 10 kts 72°
2026-04-29 11:58 51.88024 -0.37299 514 ft 11 kts 72°
2026-04-29 11:59 51.88039 -0.37221 514 ft 13 kts 73°
2026-04-29 11:59 51.87987 -0.37113 514 ft 15 kts 162°
2026-04-29 11:59 51.87882 -0.37059 515 ft 17 kts 162°
2026-04-29 11:59 51.87770 -0.37000 522 ft 16 kts 161°
2026-04-29 12:00 51.87665 -0.36949 530 ft 16 kts 182°
2026-04-29 12:00 51.87611 -0.37079 527 ft 14 kts 256°
2026-04-29 12:00 51.87583 -0.37239 527 ft 14 kts 254°
2026-04-29 12:00 51.87585 -0.37388 527 ft 11 kts 273°
2026-04-29 12:01 51.87529 -0.37482 527 ft 13 kts 223°
2026-04-29 12:01 51.87489 -0.37625 528 ft 15 kts 255°
2026-04-29 12:01 51.87459 -0.37801 528 ft 17 kts 255°
2026-04-29 12:01 51.87432 -0.37961 529 ft 10 kts 252°
2026-04-29 12:02 51.87383 -0.38057 529 ft 12 kts 207°
2026-04-29 12:02 51.87375 -0.38064 528 ft 0 kts 203°
2026-04-29 12:02 51.87369 -0.38068 528 ft 2 kts 203°
2026-04-29 12:02 51.87365 -0.38070 528 ft 0 kts 203°
2026-04-29 12:03 51.87362 -0.38073 528 ft 5 kts 203°
2026-04-29 12:03 51.87320 -0.38104 527 ft 9 kts 201°
2026-04-29 12:03 51.87253 -0.38127 529 ft 12 kts 220°
2026-04-29 12:03 51.87211 -0.38247 527 ft 13 kts 225°
2026-04-29 12:04 51.87210 -0.38324 525 ft 5 kts 25°
2026-04-29 12:04 51.87219 -0.38255 527 ft 8 kts 80°
2026-04-29 12:04 51.87257 -0.38041 529 ft 51 kts 74°
2026-04-29 12:04 51.87415 -0.37069 529 ft 123 kts 74°
2026-04-29 12:05 51.87684 -0.35559 797 ft 147 kts 75°
2026-04-29 12:05 51.87958 -0.33933 1444 ft 157 kts 77°
2026-04-29 12:05 51.88268 -0.32190 2068 ft 163 kts 74°
2026-04-29 12:05 51.88596 -0.30422 2608 ft 168 kts 75°
2026-04-29 12:06 51.88926 -0.28574 3342 ft 172 kts 75°
2026-04-29 12:06 51.89244 -0.26709 4188 ft 171 kts 79°
2026-04-29 12:06 51.89317 -0.24814 4991 ft 170 kts 96°
2026-04-29 12:06 51.88978 -0.22965 5745 ft 175 kts 114°
2026-04-29 12:07 51.88216 -0.21368 6513 ft 186 kts 132°
2026-04-29 12:07 51.87068 -0.20277 7330 ft 199 kts 154°
2026-04-29 12:07 51.85689 -0.19995 8105 ft 207 kts 177°
2026-04-29 12:07 51.84280 -0.20684 8782 ft 220 kts 201°
2026-04-29 12:08 51.83116 -0.22393 9354 ft 236 kts 231°
2026-04-29 12:08 51.82486 -0.24882 9803 ft 252 kts 258°
2026-04-29 12:08 51.82497 -0.27845 10124 ft 276 kts 281°
2026-04-29 12:08 51.83199 -0.30784 10673 ft 286 kts 291°
2026-04-29 12:09 51.83470 -0.34001 11129 ft 298 kts 259°
2026-04-29 12:09 51.82896 -0.37303 11481 ft 316 kts 246°
2026-04-29 12:09 51.82127 -0.40738 11821 ft 342 kts 248°
2026-04-29 12:09 51.81357 -0.44539 12130 ft 369 kts 249°
2026-04-29 12:10 51.80635 -0.48664 12445 ft 394 kts 252°
2026-04-29 12:10 51.79940 -0.53059 12815 ft 410 kts 253°
2026-04-29 12:10 51.79250 -0.57569 13442 ft 417 kts 253°
2026-04-29 12:10 51.78555 -0.62134 14104 ft 420 kts 253°
2026-04-29 12:11 51.77851 -0.66738 14695 ft 424 kts 253°
2026-04-29 12:11 51.77138 -0.71379 15282 ft 428 kts 253°
2026-04-29 12:11 51.76360 -0.76029 15866 ft 431 kts 248°
2026-04-29 12:11 51.75026 -0.80320 16398 ft 428 kts 231°
2026-04-29 12:12 51.73076 -0.83916 16993 ft 426 kts 221°
2026-04-29 12:12 51.70951 -0.87286 17581 ft 430 kts 220°
2026-04-29 12:12 51.68798 -0.90672 18162 ft 435 kts 220°
2026-04-29 12:12 51.66629 -0.94109 18703 ft 440 kts 220°
2026-04-29 12:13 51.64326 -0.97319 19237 ft 435 kts 208°
2026-04-29 12:13 51.61638 -0.99397 19779 ft 425 kts 192°
2026-04-29 12:13 51.58793 -1.00173 20302 ft 418 kts 177°
2026-04-29 12:13 51.55920 -0.99792 20824 ft 413 kts 165°
2026-04-29 12:14 51.53193 -0.98402 21237 ft 413 kts 155°
2026-04-29 12:14 51.50540 -0.96623 21765 ft 414 kts 154°
2026-04-29 12:14 51.47876 -0.94825 22167 ft 418 kts 154°
2026-04-29 12:14 51.45175 -0.93042 22637 ft 421 kts 155°
2026-04-29 12:15 51.42453 -0.91274 23094 ft 422 kts 155°
2026-04-29 12:15 51.39725 -0.89517 23273 ft 423 kts 155°
2026-04-29 12:15 51.36991 -0.87761 23281 ft 425 kts 156°
2026-04-29 12:15 51.34247 -0.86000 23816 ft 426 kts 158°
2026-04-29 12:16 51.31469 -0.84226 24029 ft 433 kts 156°
2026-04-29 12:16 51.28656 -0.82428 24395 ft 437 kts 156°
2026-04-29 12:16 51.27211 -0.81506 24657 ft 436 kts 157°
2026-04-29 12:16 51.24393 -0.79707 25114 ft 437 kts 157°
2026-04-29 12:17 51.21561 -0.77902 25491 ft 440 kts 158°
2026-04-29 12:17 51.18722 -0.76096 25991 ft 438 kts 158°